Location: Epalinges
(46.5518°N, 6.6683°E)
Time: 20:39:33
(UTC+00:00)

Helios 1A - Pass Details

Date: 20 June 2021
Orbit: 585 x 601 km, 98.2° (Epoch: 18 July)

Event Time Altitude Azimuth Distance (km) Brightness Sun altitude
Exits shadow 01:00:06 37° 203° (SSW) 930 3.4 -17.4°
Maximum altitude 01:01:26 54° 259° (W) 723 3.2 -17.3°
Drops below altitude 10° 01:05:34 10° 338° (NNW) 1,938 6.2 -17.1°
Sets 01:07:48 0° 343° (NNW) 2,848 7.3 -16.9°
